Location: Observatoire de Paris
(48.8363°N, 2.3365°E)
Time: 11:25:50
(UTC+01:00)

ITUPSAT 1 - Visible Passes

Search period start: 20 September 2021 00:00
Search period end: 30 September 2021 00:00
Orbit: 701 x 713 km, 98.6° (Epoch: 19 September)

Date Brightness Start Highest point End Pass type
(mag) Time Alt. Az. Time Alt. Az. Time Alt. Az.
20 Sep ? 05:29:42 10° ENE 05:30:52 11° NE 05:32:03 10° NE visible
20 Sep ? 20:36:48 10° NNE 20:41:36 84° ESE 20:46:22 10° SSW visible
20 Sep ? 22:15:56 10° NNW 22:18:46 16° NW 22:21:35 10° W visible
21 Sep ? 19:43:34 10° NE 19:47:40 28° E 19:51:44 10° SSE visible
21 Sep ? 21:21:07 10° N 21:25:35 41° WNW 21:30:01 10° SW visible
22 Sep ? 20:27:13 10° NNE 20:31:59 69° ESE 20:36:43 10° S visible
22 Sep ? 22:06:00 10° NNW 22:09:17 19° WNW 22:12:33 10° WSW visible
23 Sep ? 06:01:30 10° ESE 06:04:53 20° ENE 06:08:17 10° NNE visible
23 Sep ? 19:34:12 10° NE 19:37:59 23° E 19:41:43 10° SE visible
23 Sep ? 21:11:26 10° N 21:16:02 49° WNW 21:20:36 10° SW visible
24 Sep ? 20:17:39 10° NNE 20:22:21 55° E 20:27:01 10° S visible
24 Sep ? 21:56:09 10° N 21:59:48 22° WNW 22:03:26 10° WSW visible
25 Sep ? 05:52:28 10° E 05:55:25 17° ENE 05:58:22 10° NNE visible
25 Sep ? 19:24:54 10° NE 19:28:16 19° E 19:31:36 10° SE visible
25 Sep ? 21:01:45 10° N 21:06:28 60° WNW 21:11:07 10° SSW visible
25 Sep ? 22:42:34 10° NW 22:43:18 10° NW 22:44:01 10° WNW visible
26 Sep ? 20:08:07 10° NNE 20:12:43 45° E 20:17:15 10° S visible
26 Sep ? 21:46:21 10° N 21:50:17 26° WNW 21:54:13 10° WSW visible
27 Sep ? 05:43:33 10° E 05:45:57 14° NE 05:48:21 10° NNE visible
27 Sep ? 19:15:45 10° NE 19:18:32 15° E 19:21:19 10° SE visible
27 Sep ? 20:52:06 10° NNE 20:56:53 74° WNW 21:01:36 10° SSW visible
27 Sep ? 22:31:55 10° NNW 22:33:51 12° NW 22:35:46 10° WNW visible
28 Sep ? 19:58:38 10° NNE 20:03:04 37° E 20:07:26 10° SSE visible
28 Sep ? 21:36:35 10° N 21:40:46 31° WNW 21:44:56 10° SW visible
29 Sep ? 05:34:53 10° ENE 05:36:30 12° NE 05:38:06 10° NNE visible
29 Sep ? 19:06:49 10° ENE 19:08:47 12° E 19:10:46 10° ESE visible
29 Sep ? 20:42:29 10° NNE 20:47:17 90° WNW 20:52:02 10° SSW visible
29 Sep ? 22:21:47 10° NNW 22:24:23 15° NW 22:27:00 10° W visible
